[ hide orbit diagram ]
For accurate long-term ephemerides, please instead use our Horizons system.This orbit viewer was implemented using two-body methods, and hence should not be used for determining accurate long-term trajectories (over several years or decades) or planetary encounter circumstances.
Orbital Elements at Epoch 2459000.5 (2020-May-31.0) TDB
Reference: JPL 30 (heliocentric ecliptic J2000)
Element | Value | Uncertainty (1-sigma) | Units |
e | .0692203260033158 | 2.9816e-08 | |
a | 2.342109914840391 | 8.8396e-09 | au |
q | 2.179988302999541 | 7.3444e-08 | au |
i | 6.10285534981471 | 3.1411e-06 | deg |
node | 99.39806590666275 | 3.7036e-05 | deg |
peri | 189.00451775 | 4.8766e-05 | deg |
M | 297.1449702408404 | 3.1945e-05 | deg |
tp | 2459229.084549042848 (2021-Jan-14.58454904) | 0.00011606 | TDB |
period | 1309.210065936425 3.58 | 7.4119e-06 2.029e-08 | d yr |
n | .2749749710658592 | 1.5567e-09 | deg/d |
Q | 2.504231526681241 | 9.4515e-09 | au |
|
| | Orbit Determination Parameters
Additional Information
|
[ show covariance matrix ]
Physical Parameter Table
Parameter |
Symbol |
Value |
Units |
Sigma |
Reference |
Notes |
absolute magnitude |
H |
14.8 |
|
n/a |
MPO468198 |
|
diameter |
diameter |
3.371 |
km |
0.402 |
urn:nasa:pds:neowise_diameters_albedos::2.0[mainbelt] (http://adsabs.harvard.edu/abs/2011ApJ...741...68M) |
|
geometric albedo |
albedo |
0.170 |
|
0.048 |
urn:nasa:pds:neowise_diameters_albedos::2.0[mainbelt] (http://adsabs.harvard.edu/abs/2011ApJ...741...68M) |
|
|
37131 (2000 VW29) Discovered 2000-Nov-01 by LINEAR at Socorro |
Reference: 20020227/Numbers.arc | Last Updated: 2004-04-19 |
|
[ show close-approach data ]
Alternate Designations
2000 VW29 = 1989 VP3 = 1999 NO13 |
|
|